CAPE
0 0 0 0 0 0 0 0 0 0 0 0 0 84 292 117 248 278 368 461 518 582 191 654 582 476 58 2 0 0 0 0 0 0 0 0 0 0 0 0 0 0 0 0
0 0 0 0 0 0 0 0 0 0 0 0 16 470 458 548 514 383 309 264 495 483 650 110 662 686 34 1 0 0 0 0 0 0 0 0 0 0 0 0 0 0 3 3
0 0 0 0 0 0 0 0 0 0 0 134 404 416 318 327 449 370 364 411 479 354 585 556 210 240 400 0 0 0 0 0 0 0 0 0 0 0 0 0 0 0 2 0
0 0 0 0 0 0 0 0 0 2 386 581 388 34 0 11 31 192 202 232 486 568 302 421 129 28 183 8 0 0 0 0 0 0 0 0 0 0 0 0 0 0 2 3
0 0 0 0 0 0 0 0 54 539 531 252 219 57 0 0 0 117 302 277 476 327 226 751 758 402 43 0 0 0 0 0 0 0 0 0 0 0 0 0 0 0 3 0
0 0 0 0 0 0 0 0 52 113 18 33 128 127 0 0 0 0 199 218 399 360 381 432 594 158 60 0 0 0 0 0 0 0 0 0 0 0 0 0 0 3 0 0
0 0 0 0 0 2 0 21 2 0 0 0 0 0 0 0 0 0 0 288 365 348 341 351 607 370 15 8 0 0 0 0 0 0 0 0 0 0 0 0 0 0 0 0
0 0 0 0 6 4 130 72 0 0 0 0 0 0 0 0 0 0 0 1 244 236 182 354 627 256 132 155 1 0 0 0 0 0 0 0 0 0 0 0 0 0 0 0
60 33 54 18 43 44 0 10 0 0 0 0 0 0 0 0 0 0 0 0 62 198 187 211 380 569 363 91 0 0 0 0 0 0 0 0 0 0 0 0 0 0 0 0
0 0 0 0 3 31 8 0 0 0 0 0 0 0 0 0 0 0 0 0 0 97 97 126 212 454 386 78 0 0 0 0 0 0 0 0 0 0 0 0 0 0 10 14
0 0 0 0 0 0 0 0 0 3 0 0 0 0 0 0 0 0 0 0 0 23 57 12 8 290 384 129 0 0 0 0 0 0 0 0 0 0 0 0 0 5 5 2
0 0 0 0 0 0 0 0 0 0 0 0 0 0 0 0 0 0 0 0 0 0 3 6 0 5 267 143 1 0 1 0 0 0 0 0 0 0 0 0 0 0 0 0
0 0 0 0 0 0 0 0 0 0 0 0 0 0 0 0 0 0 0 0 0 0 67 27 0 0 0 64 1 1 1 1 0 0 0 0 0 0 0 0 0 0 0 0
0 0 0 0 0 0 0 0 0 0 0 0 0 0 0 0 0 0 0 0 0 5 2 0 4 0 0 34 7 2 0 0 0 0 0 0 0 0 0 0 0 0 0 0
0 0 0 0 0 0 0 0 0 0 0 0 0 0 0 0 0 0 0 0 0 1 0 5 27 0 0 4 18 3 0 0 0 0 0 0 0 0 0 0 0 0 0 0
8 16 27 16 2 0 1 0 0 0 0 0 0 0 0 0 0 0 0 0 0 0 0 11 11 0 0 7 25 2 0 0 0 0 0 0 0 0 0 0 0 0 0 0
30 18 19 7 22 14 4 11 9 3 1 4 1 0 0 0 0 0 0 0 15 6 0 0 11 0 0 29 5 1 0 0 0 0 0 0 0 0 0 0 0 0 0 0
13 39 5 3 0 0 0 0 24 47 118 1 172 109 51 25 0 3 10 4 22 1 0 0 8 0 2 15 4 0 0 0 0 0 0 0 0 0 0 0 0 0 0 0
12 15 32 36 14 9 14 12 11 0 1 359 294 106 38 7 2 22 31 53 5 0 0 0 3 0 30 1 5 5 0 0 0 0 0 0 0 0 0 0 0 0 0 0
100 45 19 4 0 29 15 24 10 11 0 29 282 207 113 61 15 20 118 15 0 0 5 1 0 1 4 31 0 0 0 0 0 0 0 0 0 0 0 0 0 0 0 0
62 41 18 9 11 0 0 12 1 12 75 86 93 85 48 23 38 51 17 12 0 4 2 0 1 15 2 0 0 0 0 0 0 0 0 0 0 0 0 0 0 0 0 0
2 4 7 11 14 14 7 0 0 0 0 25 35 8 9 13 41 42 26 0 0 0 5 1 1 0 0 0 0 0 0 0 0 0 0 0 0 0 0 0 0 0 0 0
12 22 24 10 19 6 9 6 1 5 0 0 0 4 10 24 43 35 2 1 0 1 2 2 0 0 0 0 1 0 0 0 0 0 0 0 0 0 0 0 0 0 0 0
23 10 4 6 7 5 9 0 1 1 1 0 0 25 12 10 9 1 0 0 0 0 0 0 0 0 0 0 0 0 0 0 0 0 0 0 0 0 0 0 0 0 0 0
7 7 4 4 3 2 1 0 0 1 6 20 12 1 1 11 0 1 1 1 4 0 0 0 0 0 0 0 0 0 0 0 0 0 0 0 0 0 0 0 0 0 0 0
2 2 2 2 2 1 0 0 3 22 8 2 1 1 2 1 0 4 9 9 0 0 0 0 0 0 0 0 0 0 0 0 0 0 0 0 0 0 0 0 0 0 0 0
2 1 2 2 2 1 0 0 22 4 2 1 0 1 1 16 21 20 11 0 0 0 0 0 0 0 0 0 0 0 0 0 0 0 0 0 0 0 0 0 0 0 0 0
CIN
-0 -0 -0 -0 -0 -0 -0 -0 -0 -0 -0 -0 -0 -33 -115 -135 -130 -131 -116 -106 -126 -99 -252 -150 -135 -140 -342 -255 -0 -0 -0 -0 -0 -0 -0 -0 -0 -0 -0 -0 -0 -0 -5 -0
-0 -0 -0 -0 -0 -0 -0 -0 -0 -0 -0 -0 -27 -108 -174 -183 -171 -182 -133 -150 -129 -178 -126 -238 -118 -69 -219 -262 -0 -0 -0 -0 -0 -0 -0 -0 -0 -0 -0 -0 -0 -0 -5 -5
-0 -0 -0 -0 -0 -0 -0 -0 -0 -0 -0 -61 -94 -155 -241 -270 -257 -201 -137 -83 -75 -127 -95 -46 -98 -124 -143 -70 -0 -0 -0 -0 -0 -0 -0 -0 -0 -0 -0 -0 -0 -0 -6 -6
-0 -0 -0 -0 -0 -0 -0 -0 -0 -14 -55 -105 -170 -225 -0 -225 -263 -325 -267 -169 -42 -60 -153 -39 -119 -111 -129 -129 -0 -0 -0 -0 -0 -0 -0 -0 -0 -0 -0 -0 -0 -0 -4 -6
-0 -0 -0 -0 -0 -0 -0 -0 -87 -31 -91 -127 -195 -255 -0 -0 -0 -416 -270 -196 -66 -68 -150 -35 -80 -175 -204 -0 -0 -0 -0 -0 -0 -0 -0 -0 -0 -0 -0 -0 -0 -0 -6 -0
-0 -0 -0 -0 -0 -0 -0 -0 -194 -175 -228 -234 -203 -133 -0 -0 -0 -0 -329 -247 -120 -110 -76 -70 -36 -121 -108 -8 -23 -0 -0 -0 -0 -0 -0 -0 -0 -0 -0 -0 -0 -12 -0 -0
-0 -0 -0 -0 -0 -30 -0 -10 -108 -0 -0 -0 -0 -0 -0 -0 -0 -0 -0 -230 -133 -115 -103 -57 -39 -85 -181 -103 -0 -0 -0 -0 -0 -0 -0 -0 -0 -0 -0 -0 -0 -0 -0 -0
-0 -0 -0 -0 -34 -8 -63 -84 -0 -0 -0 -0 -0 -0 -0 -0 -0 -0 -0 -20 -212 -170 -158 -68 -6 -81 -114 -91 -32 -0 -0 -0 -0 -0 -0 -7 -0 -0 -0 -0 -0 -0 -0 -0
-8 -8 -33 -41 -14 -38 -21 -53 -0 -0 -0 -0 -0 -0 -0 -0 -0 -0 -0 -0 -333 -179 -145 -109 -51 -4 -10 -84 -0 -0 -0 -0 -0 -0 -0 -0 -0 -0 -0 -0 -0 -0 -0 -23
-0 -0 -0 -0 -4 -29 -22 -0 -0 -0 -0 -0 -0 -0 -0 -0 -0 -0 -0 -0 -0 -217 -171 -144 -102 -38 -11 -71 -0 -1 -0 -0 -0 -0 -0 -0 -0 -0 -0 -0 -0 -0 -26 -15
-0 -0 -0 -0 -0 -0 -0 -0 -0 -16 -0 -0 -0 -0 -0 -0 -0 -0 -0 -0 -0 -236 -203 -222 -193 -62 -14 -34 -0 -0 -0 -0 -0 -0 -0 -0 -0 -0 -0 -0 -0 -34 -44 -57
-0 -0 -0 -0 -0 -0 -0 -0 -0 -0 -0 -0 -0 -0 -0 -0 -0 -0 -0 -0 -0 -0 -59 -252 -0 -37 -23 -21 -0 -0 -0 -0 -0 -0 -0 -0 -0 -0 -0 -0 -0 -0 -0 -0
-0 -0 -0 -0 -0 -0 -0 -0 -0 -0 -0 -0 -0 -0 -0 -0 -0 -0 -0 -0 -0 -0 -91 -168 -0 -0 -4 -31 -0 -0 -0 -0 -0 -0 -0 -0 -0 -0 -0 -0 -0 -0 -0 -0
-0 -0 -0 -0 -0 -0 -0 -0 -0 -0 -0 -0 -0 -0 -0 -0 -0 -0 -0 -0 -0 -7 -10 -0 -190 -0 -0 -32 -25 -0 -0 -0 -0 -0 -0 -0 -0 -0 -0 -0 -0 -0 -0 -0
-0 -0 -0 -0 -0 -0 -0 -0 -0 -0 -0 -0 -0 -0 -0 -0 -0 -0 -0 -0 -0 -5 -0 -34 -111 -0 -0 -3 -5 -5 -0 -0 -0 -0 -0 -0 -0 -0 -0 -0 -0 -0 -0 -0
-9 -8 -3 -11 -4 -0 -3 -0 -0 -0 -3 -0 -0 -0 -0 -0 -0 -0 -0 -0 -0 -0 -0 -39 -40 -0 -0 -7 -6 -3 -0 -0 -0 -0 -0 -0 -0 -0 -0 -0 -0 -0 -0 -0
-46 -49 -32 -68 -55 -44 -62 -52 -24 -31 -27 -34 -0 -0 -0 -0 -0 -0 -0 -0 -13 -20 -0 -0 -44 -0 -0 -4 -29 -0 -0 -2 -0 -0 -0 -0 -0 -0 -13 -0 -0 -0 -0 -0
-62 -118 -114 -109 -0 -0 -0 -0 -47 -59 -18 -12 -8 -16 -13 -10 -0 -8 -8 -11 -20 -5 -0 -0 -45 -0 -0 -4 -29 -0 -1 -0 -0 -0 -0 -0 -0 -0 -0 -0 -0 -0 -0 -0
-86 -35 -31 -39 -44 -56 -55 -44 -66 -0 -44 -3 -7 -9 -14 -18 -11 -17 -17 -27 -20 -0 -0 -6 -41 -0 -0 -13 -9 -48 -27 -0 -0 -0 -0 -5 -0 -0 -0 -0 -0 -0 -0 -0
-14 -18 -22 -29 -1 -19 -44 -27 -33 -27 -0 -102 -8 -15 -24 -29 -35 -22 -18 -19 -2 -0 -54 -15 -6 -2 -1 -15 -3 -0 -0 -0 -0 -0 -0 -0 -0 -0 -0 -0 -0 -0 -0 -0
-7 -18 -26 -25 -25 -0 -0 -60 -1 -16 -15 -6 -13 -14 -25 -31 -52 -13 -9 -20 -0 -67 -62 -0 -0 -0 -0 -0 -0 -0 -0 -0 -0 -0 -0 -0 -0 -0 -0 -0 -0 -0 -0 -0
-5 -5 -3 -1 -4 -4 -4 -0 -0 -0 -0 -51 -44 -35 -25 -32 -26 -30 -26 -0 -0 -0 -4 -6 -0 -0 -0 -0 -0 -0 -0 -0 -0 -0 -0 -0 -0 -0 -0 -0 -0 -0 -0 -0
-6 -3 -4 -5 -4 -10 -0 -3 -1 -3 -0 -0 -0 -13 -7 -33 -34 -27 -41 -0 -0 -20 -0 -0 -0 -0 -0 -0 -9 -3 -0 -0 -0 -0 -0 -0 -0 -0 -0 -0 -0 -0 -0 -0
-1 -1 -0 -0 -2 -1 -0 -0 -0 -3 -2 -0 -1 -10 -31 -31 -23 -10 -0 -0 -0 -0 -0 -1 -0 -0 -0 -0 -0 -0 -0 -0 -0 -0 -0 -0 -0 -0 -0 -0 -0 -0 -0 -0
-0 -0 -0 -0 -0 -0 -0 -0 -0 -1 -8 -2 -17 -28 -15 -10 -0 -0 -0 -5 -32 -14 -0 -0 -0 -0 -0 -0 -0 -0 -0 -0 -0 -0 -0 -0 -0 -0 -0 -0 -0 -0 -0 -0
-0 -0 -0 -0 -0 -0 -0 -0 -1 -1 -11 -0 -0 -0 -0 -0 -0 -2 -10 -16 -0 -0 -0 -0 -0 -0 -0 -0 -0 -0 -0 -0 -0 -0 -0 -0 -0 -0 -0 -0 -0 -0 -0 -0
-0 -0 -0 -0 -0 -0 -0 -0 -1 -1 -7 -0 -0 -0 -2 -5 -7 -6 -14 -0 -0 -0 -0 -0 -0 -0 -0 -0 -0 -0 -0 -0 -0 -0 -0 -0 -0 -0 -0 -0 -0 -0 -0 -0
Wind_Speed
25 31 32 31 31 28 21 20 22 38 34 33 35 26 20 21 19 22 23 24 30 32 21 9 2 6 9 7 8 8 9 9 10 7 5 2 4 6 8 8 7 9 10 11
26 32 34 33 32 29 28 29 36 37 43 31 26 18 20 21 23 26 28 29 32 31 28 5 5 7 8 9 9 8 9 9 8 6 4 4 4 5 6 7 8 10 8 9
25 30 38 31 25 32 31 27 26 32 34 18 16 17 19 22 24 27 29 31 31 33 29 19 14 13 10 7 10 10 8 8 7 6 4 2 2 2 4 7 9 10 11 10
27 32 26 28 26 29 36 35 35 33 20 14 11 15 19 23 24 27 30 32 32 31 33 28 19 13 8 7 12 8 7 8 8 6 4 1 2 3 4 7 9 10 9 10
28 26 33 40 36 33 37 43 34 22 16 14 11 16 24 25 25 28 29 31 33 33 37 36 18 8 10 7 9 12 8 9 8 8 4 1 2 0 3 7 9 10 10 10
23 28 29 29 24 27 30 38 25 20 21 22 23 24 27 27 28 29 29 31 34 34 35 37 18 6 1 8 18 11 11 9 9 10 3 3 2 8 3 7 9 9 9 9
25 28 32 31 34 30 32 33 24 22 23 22 24 24 28 27 29 30 32 32 32 32 35 36 19 4 5 9 11 10 11 9 7 9 4 3 2 5 4 7 9 8 8 10
29 32 36 29 29 28 22 22 25 23 21 22 22 22 26 28 30 32 34 35 32 32 34 34 23 11 9 9 9 11 10 7 5 5 3 2 3 3 4 8 9 9 9 10
26 28 19 25 24 20 22 24 25 26 28 25 26 27 29 31 30 31 34 37 35 33 33 32 31 18 11 10 10 10 10 8 6 6 4 3 2 2 7 8 8 8 7 8
31 25 31 33 29 25 25 26 23 22 23 27 29 30 31 33 32 34 35 38 38 35 34 33 32 27 15 11 8 11 9 9 5 7 4 2 2 3 6 8 7 7 9 9
39 36 33 26 28 30 28 27 26 23 22 26 28 30 31 35 33 35 37 39 40 37 35 34 32 28 21 13 8 10 11 8 7 4 3 1 4 8 8 11 9 7 10 11
41 36 35 37 34 34 34 34 36 36 35 34 34 36 36 35 36 38 41 39 40 40 36 33 32 27 22 15 10 10 10 6 6 3 3 2 4 10 13 13 12 12 12 14
43 39 40 41 40 38 38 37 36 37 39 40 41 43 43 41 40 41 40 39 39 40 34 33 33 30 23 17 12 8 5 7 4 4 4 4 5 7 9 13 14 13 13 15
44 46 47 45 47 45 43 44 44 42 41 41 41 40 41 42 41 43 41 39 39 33 33 34 33 30 24 19 11 8 10 9 6 6 5 5 4 7 7 8 10 11 13 14
38 38 40 42 44 45 46 45 48 48 48 48 47 46 44 45 45 42 39 38 33 33 35 34 32 32 31 23 17 15 10 8 8 6 7 5 6 8 9 9 9 10 11 12
39 37 35 35 38 41 41 38 43 46 46 47 48 43 42 41 41 38 37 38 34 35 37 34 31 34 37 25 15 13 12 10 9 8 9 6 9 7 8 10 11 11 12 12
37 37 36 39 40 43 36 41 33 37 44 46 47 41 39 39 41 42 40 36 30 32 34 33 33 36 37 24 16 16 15 15 10 7 8 9 7 9 9 10 10 11 13 16
27 34 33 24 29 33 40 31 30 34 39 43 40 33 33 35 38 38 37 35 31 33 33 31 31 35 36 11 15 15 14 13 9 8 9 8 12 12 12 12 12 13 15 17
11 7 7 17 20 22 28 28 32 28 39 35 34 36 37 38 38 39 40 31 32 36 36 34 31 31 25 8 15 14 11 8 8 4 5 12 14 14 14 14 15 15 15 17
26 27 28 30 28 27 25 27 32 36 47 44 40 39 38 37 37 38 31 31 33 36 33 32 33 30 32 15 11 15 9 15 6 7 9 13 14 13 14 16 17 17 18 20
31 30 31 29 22 27 30 24 29 35 37 38 38 38 39 38 37 34 34 34 34 34 34 34 32 12 21 16 16 21 12 6 8 12 13 14 14 13 16 17 18 18 20 21
36 39 39 31 27 30 21 27 35 36 36 35 35 36 36 36 35 34 33 34 31 26 27 7 15 22 20 19 20 11 9 10 12 12 11 15 13 14 17 17 18 19 20 22
27 33 38 38 36 35 38 36 33 33 33 34 34 33 33 32 31 31 31 23 15 4 14 19 21 19 18 14 11 12 16 14 9 12 14 12 14 16 17 19 20 20 21 22
15 20 28 28 29 28 29 28 28 29 30 30 30 29 29 29 28 26 20 2 11 18 18 17 16 14 13 14 14 16 15 10 15 16 13 15 16 17 19 20 20 21 22 22
26 23 22 21 22 23 23 24 25 26 26 26 27 26 25 21 17 13 10 20 16 19 17 17 14 11 15 14 17 15 10 13 16 14 13 15 17 19 21 21 22 22 23 23
23 20 20 20 22 23 24 23 22 23 28 22 16 15 6 4 9 15 19 19 25 21 17 13 10 9 12 16 17 14 15 14 12 13 15 18 19 21 22 22 23 23 23 25
18 18 17 18 22 25 25 23 22 28 4 1 14 11 9 11 14 27 25 20 20 16 12 9 13 16 18 13 10 9 11 12 14 15 18 20 21 22 23 23 23 23 24 26
Wind_Direction
305 302 302 307 304 308 313 310 304 299 304 308 305 323 331 343 356 356 354 356 353 342 342 343 155 201 250 215 201 188 180 176 174 157 137 71 69 31 37 55 69 51 50 48
309 302 301 303 302 303 303 302 298 300 295 311 313 320 323 333 341 341 342 349 350 346 343 334 328 283 260 235 242 213 199 188 172 164 151 130 88 74 54 62 51 36 43 46
308 308 303 302 305 301 301 302 303 300 305 317 313 316 323 327 336 337 340 346 353 345 344 343 323 301 274 229 252 230 223 215 188 177 170 166 116 65 34 42 34 30 32 40
305 307 297 307 310 305 296 298 299 302 316 329 325 324 327 330 331 334 340 341 344 350 340 335 329 295 285 239 232 212 223 204 197 197 187 190 315 332 55 32 31 30 35 29
299 298 299 296 299 303 298 290 302 305 309 310 314 321 321 323 328 331 336 342 342 347 342 335 338 310 209 238 226 211 206 174 190 187 206 225 212 287 95 33 31 32 31 30
296 300 300 313 320 322 313 291 312 312 311 312 306 295 303 315 321 324 330 336 339 343 350 345 355 347 216 301 260 205 193 185 173 168 187 175 139 150 63 31 30 32 32 35
283 290 297 305 305 310 296 299 312 312 308 309 308 308 301 312 318 321 322 327 338 345 350 350 1 14 252 286 239 201 200 182 170 167 145 147 118 125 61 27 26 34 32 27
285 287 291 308 310 305 306 315 315 314 316 312 312 309 310 311 313 314 316 318 330 337 343 351 356 340 305 271 245 228 214 210 206 192 199 145 126 107 36 24 27 28 29 27
290 292 303 314 312 315 314 308 309 309 304 307 307 307 307 306 309 313 313 311 318 328 334 340 346 347 321 298 257 239 226 231 232 241 238 183 184 93 6 23 35 29 33 27
300 301 302 308 308 306 303 305 305 309 309 307 304 306 305 302 305 309 311 309 311 317 323 329 336 341 335 307 275 260 238 253 261 266 214 230 110 46 30 35 37 38 28 36
294 299 300 302 308 310 306 301 305 300 299 293 301 311 301 295 304 305 306 307 306 310 313 320 330 334 338 323 281 250 260 267 277 276 190 215 17 357 24 25 27 33 43 46
292 300 300 297 299 300 298 295 291 292 293 293 296 292 297 298 299 301 304 307 306 300 305 314 321 330 332 324 287 249 230 250 272 116 268 324 13 19 11 18 28 49 43 38
294 298 297 295 295 297 296 295 296 293 289 287 286 285 288 292 297 300 305 305 302 299 303 307 311 318 329 321 298 263 234 216 191 153 169 106 48 57 44 23 28 42 43 42
296 296 294 295 293 294 293 292 291 290 288 288 288 289 290 290 293 295 296 298 299 300 302 302 304 311 323 319 286 223 177 169 151 147 140 127 81 76 58 54 50 51 44 43
298 297 295 296 295 293 292 290 288 285 284 283 284 284 286 285 286 289 291 294 297 296 297 299 299 306 308 307 282 231 181 178 163 155 142 132 109 94 78 69 65 61 54 41
301 299 301 303 301 299 299 292 289 287 283 281 279 281 282 283 283 286 289 290 290 291 293 293 293 302 292 300 262 217 188 177 174 149 143 135 125 102 81 78 72 64 51 43
308 303 298 302 301 294 298 295 303 294 283 281 275 274 276 278 280 281 282 284 286 289 292 290 287 297 283 289 184 215 183 207 154 143 140 132 116 116 93 84 63 67 54 45
319 311 301 308 308 308 304 301 306 301 292 273 279 270 271 273 276 278 280 279 282 287 287 290 284 287 278 263 236 199 186 158 146 139 124 100 112 106 98 88 80 76 59 46
331 324 325 326 320 314 313 309 310 301 277 280 276 266 266 270 272 275 276 277 278 279 280 278 274 283 269 186 174 199 187 175 136 115 84 107 100 96 94 68 85 76 60 45
327 320 320 319 316 317 313 311 307 301 261 255 263 258 260 265 272 273 277 273 275 273 273 272 271 267 237 177 193 190 188 130 111 108 100 95 85 69 59 64 64 59 48 38
321 320 315 316 313 313 315 311 305 288 260 261 255 252 254 260 265 267 263 264 267 262 265 270 259 219 179 166 171 209 138 143 114 109 102 93 81 62 62 61 53 49 45 39
319 316 312 311 310 310 312 306 265 253 248 247 246 247 250 252 251 255 254 248 259 268 280 233 153 156 156 172 196 143 125 116 108 100 87 87 73 68 65 56 53 49 44 37
322 321 312 305 304 284 262 255 245 238 234 233 236 237 236 234 239 231 232 256 267 65 146 146 144 155 173 178 159 123 115 108 101 87 83 71 68 66 59 57 55 52 46 38
320 266 263 258 251 243 238 233 227 225 222 219 222 222 216 219 226 232 235 124 123 143 144 142 172 161 174 151 127 109 104 105 88 83 75 68 64 60 63 64 61 54 46 44
264 257 252 241 230 224 218 213 210 204 202 204 202 202 209 234 232 210 143 114 147 155 166 162 152 152 131 123 105 101 102 90 87 78 67 64 62 62 64 65 59 52 48 48
257 250 241 228 217 209 201 199 200 193 171 198 214 224 256 118 142 125 121 158 169 166 155 158 163 147 119 105 101 103 93 84 76 71 69 68 68 68 68 63 58 51 45 43
244 236 229 219 204 198 194 191 195 165 146 266 203 187 116 121 145 170 173 173 165 152 149 158 124 115 106 118 129 107 87 80 76 72 71 69 69 71 71 65 59 50 49 44